TimeHST,TemperatureF,Dew PointF,Humidity,Sea Level PressureIn,VisibilityMPH,Wind Direction,Wind SpeedMPH,Gust SpeedMPH,PrecipitationIn,Events,Conditions,WindDirDegrees,DateUTC
12:53 AM,71.6,64.4,78,29.93,6.2,Variable,4.6,-,N/A,,Mostly Cloudy,0,2014-01-11 10:53:00
12:57 AM,71.6,64.9,79,29.92,9.0,Calm,Calm,-,N/A,,Mostly Cloudy,0,2014-01-11 10:57:00
1:57 AM,69.8,64.9,84,29.89,9.0,ESE,3.5,-,N/A,,Scattered Clouds,110,2014-01-11 11:57:00
2:57 AM,69.8,64.9,84,29.88,9.0,Calm,Calm,-,N/A,,Mostly Cloudy,0,2014-01-11 12:57:00
3:57 AM,69.8,63.0,79,29.88,9.0,Calm,Calm,-,N/A,,Overcast,0,2014-01-11 13:57:00
4:57 AM,69.8,63.0,79,29.88,9.0,SSW,3.5,-,N/A,,Overcast,200,2014-01-11 14:57:00
5:57 AM,69.8,64.0,82,29.89,8.0,Calm,Calm,-,0.00,,Partly Cloudy,0,2014-01-11 15:57:00
6:57 AM,71.6,62.1,72,29.90,7.0,Calm,Calm,-,N/A,,Clear,0,2014-01-11 16:57:00
7:57 AM,71.6,61.0,69,29.91,6.0,Calm,Calm,-,N/A,,Clear,0,2014-01-11 17:57:00
8:57 AM,73.4,63.0,70,29.93,7.0,Calm,Calm,-,N/A,,Partly Cloudy,0,2014-01-11 18:57:00
9:57 AM,77.0,69.1,76,29.96,7.0,South,4.6,-,N/A,,Partly Cloudy,180,2014-01-11 19:57:00
10:57 AM,77.0,68.0,74,29.95,10.0,Calm,Calm,-,N/A,,Partly Cloudy,0,2014-01-11 20:57:00
11:57 AM,77.9,66.0,67,29.93,7.0,ESE,4.6,-,N/A,,Mostly Cloudy,110,2014-01-11 21:57:00
12:57 PM,77.0,64.9,66,29.91,7.0,WSW,5.8,-,N/A,,Overcast,240,2014-01-11 22:57:00
1:57 PM,77.0,62.1,60,29.88,10.0,SW,11.5,-,N/A,,Mostly Cloudy,230,2014-01-11 23:57:00
2:57 PM,77.0,61.0,58,29.89,10.0,West,5.8,-,N/A,,Overcast,270,2014-01-12 00:57:00
3:57 PM,77.0,62.1,60,29.88,7.0,Calm,Calm,-,0.00,,Mostly Cloudy,0,2014-01-12 01:57:00
4:57 PM,77.0,63.0,62,29.90,7.0,NNW,3.5,-,N/A,,Overcast,340,2014-01-12 02:57:00
5:57 PM,77.0,64.0,64,29.91,7.0,NNW,3.5,-,N/A,,Mostly Cloudy,340,2014-01-12 03:57:00
6:57 PM,77.0,64.0,64,29.93,8.0,Calm,Calm,-,N/A,,Mostly Cloudy,0,2014-01-12 04:57:00
7:57 PM,75.2,64.9,70,29.94,7.0,Calm,Calm,-,N/A,,Partly Cloudy,0,2014-01-12 05:57:00
8:37 PM,77.0,64.4,65,29.98,6.2,Calm,Calm,-,N/A,,Overcast,0,2014-01-12 06:37:00
8:45 PM,77.0,64.4,65,29.97,6.2,Calm,Calm,-,N/A,,Mostly Cloudy,0,2014-01-12 06:45:00
8:57 PM,77.0,64.0,64,29.96,7.0,Calm,Calm,-,N/A,,Mostly Cloudy,0,2014-01-12 06:57:00
9:08 PM,-9999,-9999,N/A,29.97,5.0,Calm,Calm,-,N/A,,Haze,0,2014-01-12 07:08:00
9:37 PM,71.6,64.4,78,29.98,6.2,Calm,Calm,-,N/A,,Scattered Clouds,0,2014-01-12 07:37:00
9:57 PM,71.6,64.9,79,29.96,7.0,Calm,Calm,-,N/A,,Partly Cloudy,0,2014-01-12 07:57:00
10:18 PM,-9999,-9999,N/A,29.98,5.0,Calm,Calm,-,N/A,,Haze,0,2014-01-12 08:18:00
10:57 PM,71.6,64.9,79,29.97,7.0,Calm,Calm,-,N/A,,Mostly Cloudy,0,2014-01-12 08:57:00
11:57 PM,69.8,64.9,84,29.96,7.0,Calm,Calm,-,N/A,,Scattered Clouds,0,2014-01-12 09:57:00